Location: Domachevo
(51.7500°N, 23.6000°E)
Time: 01:40:50
(UTC+03:00)

Envisat - Visible Passes

Search period start: 25 April 2019 00:00
Search period end: 05 May 2019 00:00
Orbit: 764 x 766 km, 98.2° (Epoch: 24 April)

Date Brightness Start Highest point End Pass type
(mag) Time Alt. Az. Time Alt. Az. Time Alt. Az.
26 Apr 6.4 21:46:47 10° W 21:47:28 10° W 21:48:09 10° WNW visible
29 Apr 6.0 21:33:47 10° WSW 21:36:03 13° W 21:38:20 10° WNW visible
02 May 5.8 21:21:36 10° SW 21:24:39 16° W 21:27:44 10° NW visible
